STARLINK-30931, 58413

Orbit data source: Space-Track

STARLINK-30931, 58413 is a payload satellite owned by SpaceX/Seattle (US) in LEO that was launched on Wed, 22 Nov 2023 UTC via an FALCON 9 launch vehicle from the Air Force Eastern Test Range (AFETR). Payload-class satellites include a variety of spacecraft equipped with specific instruments for various scientific and technological missions. These include communications satellites like Starlink; space stations such as the ISS; scientific satellites like the Hubble; Earth observation satellites from companies like Planet Labs, Umbra, and HawkEye 360; GPS; miniature CubeSats for education and research; and military/defense satellites.

Loading next visibility...
Identifier
58413, 2023-180M
Orbit
LEO
Country
Flag of USUS
Related business
Manufacturer
SpaceX/Seattle
Mission
Operational Commercial Communications
Bus & Motor
STARLINK V2M, Unknown motor
Mass
730 kg wet, ~700 kg dry
Launch date (UTC)
2023-11-22 (2 years ago)
Launch vehicle
FALCON 9
Launch site
Air Force Eastern Test Range (AFETR)
Object type
Payload
Rocket body
Debris
Shape & HBR
Box + 2 Pan, 14.5 m
Radar Cross Section
33.884 m², Large (>1 m²)

Expand to show TLE details & history
Last TLE update: 14 hours ago

TLE from 14 hours ago
0 STARLINK-30931
1 58413U 23180M   25250.23376989  .00000501  00000-0  52183-4 0  9995
2 58413  43.0033 320.4441 0001443 262.2599  97.8080 15.02543122100133
Epoch: 2025-09-07T05:36Z
TLE epoch observation values (Epoch: 2025-09-07T05:36:37.718Z)
Latitude
0.00001°
Longitude
-110.26922°
Altitude
558.972 km
Speed
7.584 km/s
True Right ascension
21h 21m 46s
True Declination
0° 00' 00"
Sunlit
Object was in full shadow at epoch
Visualization orbit readout
Latitude
Unknown
Longitude
Unknown
Altitude
Unknown
Speed
Unknown
Apparent Right ascension
Unknown
Apparent Declination
Unknown
Sunlit
N/A
Visualization observer readout
Local Sidereal Time
11:39:18
Azimuth
Unknown
Elevation
Unknown
Doppler factor
Unknown
Orbital elements
Apogee altitude
561.982 km
Perigee altitude
559.98 km
Semi-major axis
6,939.118 km
Eccentricity
0.00014
Inclination
43.0033°
RAAN
320.4441°
Arg. of periapsis
262.2599°
True anomaly
97.82438°
Mean anomaly
97.808°
Eccentric anomaly
97.81619°
Mean motion
3.7548 °/min
Orbital period
95.88 mins
BSTAR
0.000052183
Loading maneuver chart data...
Computing Atmospheric mass density...
Loading historical data...
Loading historical data...
Loading historical data...
Loading historical data...
Loading historical data...
Loading historical data...
Loading historical data...

Documentation

Showing up to 5 results
|